Location: Miami, Florida
(25.6830°N, 80.1700°W)
Time: 01:28:12
(UTC-04:00)

Vanguard 2 Rocket - All Passes

Search period start: 20 February 2018 00:00
Search period end: 02 March 2018 00:00
Orbit: 555 x 3327 km, 32.9° (Epoch: 19 February)

Date Brightness Start Highest point End Pass type
(mag) Time Alt. Az. Time Alt. Az. Time Alt. Az.
20 Feb - 00:50:52 10° W 01:03:57 73° NNW 01:24:07 10° ENE visible
20 Feb - 03:06:45 10° WNW 03:24:12 71° N 03:44:30 10° E visible
20 Feb - 05:24:07 10° WNW 05:44:26 84° SSW 06:01:58 10° ESE visible
20 Feb - 07:43:55 10° WNW 08:01:38 41° SW 08:14:43 10° SSE daylight
20 Feb - 21:39:03 10° SSW 21:46:54 48° SE 22:00:28 10° ENE visible
20 Feb - 23:51:09 10° WSW 00:02:17 81° NNW 00:21:08 10° ENE visible
21 Feb - 02:06:05 10° W 02:21:27 68° N 02:42:04 10° E visible
21 Feb - 04:22:38 10° WNW 04:41:56 85° NNE 05:01:09 10° ESE visible
21 Feb - 06:40:58 10° WNW 07:00:29 55° SW 07:15:50 10° SE visible
21 Feb - 09:05:40 10° W 09:15:43 17° SW 09:23:58 10° SSW daylight
21 Feb - 20:41:17 10° SSW 20:47:32 29° SE 20:57:18 10° E visible
21 Feb - 22:51:53 10° WSW 23:01:16 87° SSE 23:18:11 10° ENE visible
22 Feb - 01:05:51 10° W 01:19:04 68° N 01:39:09 10° ENE visible
22 Feb - 03:21:38 10° WNW 03:39:14 77° NNE 03:59:34 10° ESE visible
22 Feb - 05:38:50 10° WNW 05:58:44 69° SSW 06:16:08 10° SE visible
22 Feb - 07:59:57 10° W 08:15:14 29° SW 08:27:18 10° S daylight
22 Feb - 19:44:52 10° SSE 19:48:35 15° SE 19:53:17 10° E visible
22 Feb - 21:53:05 10° SW 22:00:58 68° SSE 22:15:21 10° ENE visible
23 Feb - 00:06:01 10° W 00:17:14 71° N 00:36:01 10° ENE visible
23 Feb - 02:21:03 10° WNW 02:36:35 71° N 02:57:15 10° E visible
23 Feb - 04:37:20 10° WNW 04:56:31 82° SSW 05:15:40 10° ESE visible
23 Feb - 06:56:14 10° WNW 07:14:16 41° SW 07:29:03 10° SSE visible
23 Feb - 20:54:46 10° SSW 21:01:20 46° SE 21:12:40 10° ENE visible
23 Feb - 23:06:35 10° WSW 23:16:00 78° NNW 23:32:55 10° ENE visible
24 Feb - 01:20:51 10° WNW 01:34:14 67° N 01:54:20 10° E visible
24 Feb - 03:36:23 10° WNW 03:54:02 86° NNE 04:14:23 10° ESE visible
24 Feb - 05:53:44 10° WNW 06:12:46 55° SW 06:29:49 10° SE visible
24 Feb - 08:17:37 10° W 08:28:55 18° SW 08:38:34 10° S daylight
24 Feb - 19:57:07 10° S 20:02:13 26° SE 20:09:56 10° E visible
24 Feb - 22:07:32 10° WSW 22:15:25 89° SSE 22:30:04 10° ENE visible
25 Feb - 00:21:00 10° W 00:32:20 66° N 00:51:04 10° E visible
25 Feb - 02:35:53 10° WNW 02:51:34 77° NNE 03:12:19 10° ESE visible
25 Feb - 04:52:03 10° WNW 05:10:49 68° SSW 05:29:44 10° SE visible
25 Feb - 07:12:19 10° W 07:28:00 29° SW 07:41:30 10° S visible
25 Feb - 19:01:11 10° SSE 19:03:26 12° SE 19:06:03 10° ESE daylight
25 Feb - 21:08:51 10° SW 21:15:28 68° SSE 21:27:33 10° ENE visible
25 Feb - 23:21:30 10° W 23:30:58 67° N 23:47:47 10° ENE visible
26 Feb - 01:35:46 10° WNW 01:49:18 70° NNE 02:09:32 10° E visible
26 Feb - 03:51:04 10° WNW 04:08:35 81° SSW 04:28:49 10° ESE visible
26 Feb - 06:09:02 10° WNW 06:26:40 41° SW 06:42:54 10° SSE visible
26 Feb - 20:10:36 10° SSW 20:16:06 43° SE 20:25:19 10° ENE visible
26 Feb - 22:22:16 10° W 22:30:10 74° NNW 22:44:47 10° ENE visible
27 Feb - 00:35:58 10° WNW 00:47:26 65° N 01:06:17 10° E visible
27 Feb - 02:50:35 10° WNW 03:06:19 87° NNE 03:27:06 10° ESE visible
27 Feb - 05:06:59 10° WNW 05:24:56 53° SW 05:43:18 10° SE visible
27 Feb - 07:30:00 10° W 07:41:52 19° SW 07:52:37 10° S daylight
27 Feb - 19:13:01 10° S 19:17:11 23° SE 19:23:06 10° E daylight
27 Feb - 21:23:21 10° WSW 21:29:58 87° NNW 21:42:15 10° ENE visible
27 Feb - 23:36:27 10° W 23:46:02 63° N 00:02:52 10° E visible
28 Feb - 01:50:32 10° WNW 02:04:12 77° NNE 02:24:36 10° ESE visible
28 Feb - 04:05:48 10° WNW 04:22:56 66° SSW 04:42:48 10° SE visible
28 Feb - 06:25:10 10° W 06:40:35 29° SW 06:55:11 10° S visible
28 Feb - 20:24:43 10° SW 20:30:18 69° SSE 20:40:11 10° ENE visible
28 Feb - 22:37:10 10° W 22:45:08 63° N 22:59:40 10° ENE visible
01 Mar - 00:50:49 10° WNW 01:02:27 69° NNE 01:21:30 10° E visible
01 Mar - 03:05:16 10° WNW 03:20:51 79° SSW 03:41:28 10° SE visible
01 Mar - 05:22:21 10° W 05:39:00 40° SW 05:56:13 10° SSE visible
01 Mar - 07:54:31 10° SW 07:56:05 10° SW 07:57:39 10° SW daylight
01 Mar - 19:26:29 10° SW 19:31:09 41° SE 19:38:30 10° ENE daylight
01 Mar - 21:38:07 10° W 21:44:45 69° NNW 21:56:58 10° ENE visible
